Regional Weather Roundup
Issued by NWS Charleston, SC

Current Version | Previous Version | Graphics & Text | Print | Product List | Glossary On
Versions: 1 2 3 4 5 6 7 8 9 10 11 12 13 14 15 16 17 18 19 20 21 22 23 24 25 26 27 28 29 30 31 32 33 34 35 36 37 38 39 40 41 42 43 44 45 46 47 48 49 50
000 ASUS42 KCHS 291610 RWRCHS REGIONAL WEATHER ROUNDUP NATIONAL WEATHER SERVICE CHARLESTON SC 1200 PM EDT FRI AUG 29 2014 NOTE: "FAIR" INDICATES FEW OR NO CLOUDS BELOW 12,000 FEET WITH NO SIGNIFICANT WEATHER AND/OR OBSTRUCTIONS TO VISIBILITY. NOT ALL STATIONS ARE QUALITY CONTROLLED BY THE NATIONAL WEATHER SERVICE. USE DATA WITH CAUTION...ESPECIALLY DEWPOINT OBSERVATIONS. SCZ027-030-031-034>040-042>050-291700- ...SOUTH CAROLINA... CITY SKY/WX TMP DP RH WIND PRES REMARKS N CHARLESTON MOSUNNY 88 71 57 CALM 30.09F HX 94 WATERFRONT PRK N/A 84 N/A N/A SE7 N/A FORT JOHNSON NOT AVBL MOUNT PLEASANT PTSUNNY 88 75 66 CALM 30.09F HX 97 JOHNS ISLAND CLOUDY 82 75 78 CALM 30.10S PINOPOLIS N/A 84 73 70 N3 30.04S HX 91 MONCKS CORNER N/A 86 75 70 S3 30.09F HX 95 SUMMERVILLE FAIR 88 70 55 SW5 30.10F HX 92 BEAUFORT MCAS SUNNY 88 71 57 VRB3 30.09S HX 94 BEAUFORT ARPT FAIR 86 68 54 SE5 30.08F HAZE HILTON HEAD IS MOSUNNY 84 73 70 N8 30.10F HX 91 GEORGETOWN NOT AVBL WALTERBORO MOSUNNY 88 63 42 CALM 30.10F ORANGEBURG SUNNY 87 63 44 VRB3 30.10F BARNWELL FAIR 88 63 42 CALM 30.10S AIKEN FAIR 90 64 43 SE5 30.12F HX 91 MANNING FAIR 86 70 58 S6 30.10F HX 90 KINGSTREE NOT AVBL COLUMBIA MOSUNNY 90 65 43 CALM 30.09F HX 92 SUMTER SUNNY 88 64 45 VRB1 30.09F FLORENCE SUNNY 88 63 43 W3 30.10F MYRTLE BEACH NOT AVBL N MYRTLE BEACH SUNNY 86 72 62 VRB6 30.11S HX 92 $$ GAZ063-065-086>088-099>101-113>116-118-119-134-136>141-150-291700- ...GEORGIA... CITY SKY/WX TMP DP RH WIND PRES REMARKS SAVANNAH ARPT MOSUNNY 88 65 46 S5 30.09S HX 90 HUNTER AAF MOSUNNY 87 68 54 SE5 30.07F HX 90 FORT STEWART MOSUNNY 89 66 47 SW3 30.07F HX 91 STATESBORO NOT AVBL SYLVANIA SUNNY 85 69 58 CALM 30.10F CLAXTON NOT AVBL THOMSON SUNNY 90 69 50 CALM 30.12F HX 95 AUGUSTA-BUSH SUNNY 88 68 51 SE5 30.07F HX 91 AUGUSTA-DANIEL SUNNY 88 65 46 CALM 30.09F HX 90 SWAINSBORO FAIR 91 64 40 SE5 30.09F HX 93 VIDALIA N/A 90 66 45 E5 30.08F HX 92 ALMA SUNNY 89 66 46 E3 30.08S HX 91 WAYCROSS SUNNY 93 69 46 SE7 30.07S HX 98 JESUP N/A 91 68 46 SE6 30.08S HX 95 BRUNSWICK SUNNY 88 68 51 CALM 30.08F HX 91 SAINT SIMONS SUNNY 85 76 74 E8 30.08S HX 94 $$ SCZ027-028-034-036>038-045-046-048>050-GAZ119-141-291700- ...LAKE AND SUPPLEMENTAL COASTAL OBSERVATIONS... STATION/POSITION TIME TEMP WIND PRES WAVE SWELL AIR SEA DIR/SP/G HT/PER HT/PER/DIR (UTC) (F) (DEG/KT/KT) (MB) (FT/S) (FT/S/D) UPR LAKE MARION NOT AVBL WINYAH BAY 1500 83 50/ 1 1019.0S LAKE MURRAY 1500 82 160/ 4/ 6 1018.6S ACE BASIN NERRS 1500 85 220/ 1 1019.0S FORT PULASKI 1600 84 300/ 2/ 3 1019.0F SAPELO ISLAND 1500 85 CALM 1019.0S $$ ANZ835-935-AMZ111-154-330-350-352-354-374-450-454-472-291700- ...C-MAN AND BUOY OBSERVATIONS... STATION/POSITION TIME TEMP WIND PRES WAVE SWELL AIR SEA DIR/SP/G HT/PER HT/PER/DIR (UTC) (F) (DEG/KT/KT) (MB) (FT/S) (FT/S/D) FOLLY BEACH CMAN 1500 83 60/ 5/ 7 1019.6R BUOY 41004 1600 82 84 330/ 4/ 4 1018.7S 3/ 9 3/ 9 BUOY 41008 1600 82 85 40/ 6/ 8 1018.8R 2/ 9 2/ 90/ 9 5E ST. MARYS GA 1600 84 N/A 3/ 9 FRYING PAN BUOY NOT AVBL BUOY 41025 1600 79 280/ 6/ 8 1020.0R 3/ 9 3/110/ 9 CAPE LOOKOUT NC 1500 83 270/ 6/ 8 1019.7R BUOY 41002 1514 80 83 100/ 6/ 6 1021.1R 4/ 8 5/110/ 8 BUOY 41010 1600 84 83 220/ 4/ 6 1019.1R 3/ 8 3/100/ 8 BUOY 41012 NOT AVBL ST AUGUSTINE FL 1600 82 140/ 6/ 7 1019.1F CAPERS NEARSHORE NOT AVBL FRIPP NEARSHORE NOT AVBL $$

USA.gov is the U.S. government's official web portal to all federal, state and local government web resources and services.